This demonstration page uses our WeatherBlox Daily Observations layout. Learn more.

Left ArrowRight Arrow

36.17497, -115.13722

Hourly Observations for August 24, 2019

Temp ( °F °C ) Dew Point ( °F °C ) Humidity (%) Winds ( mph kmh ) Pressure ( in mb ) Visibility ( mi km ) Precip ( " mm )
12:53 am 00:53 Clear 89 31.7 43 6.1 20 20 S 9 15 29.83 1010 10 16 0.00 0.00
1:53 am 01:53 Clear 88 31.1 40 4.4 18 18 SSE 13 20 29.83 1010 10 16 0.00 0.00
2:53 am 02:53 Clear 87 30.6 39 3.9 18 18 S 9 15 29.84 1010 10 16 0.00 0.00
3:53 am 03:53 Clear 82 27.8 41 5 23 23 E 8 13 29.85 1011 10 16 0.00 0.00
4:53 am 04:53 Clear 80 26.7 41 5 25 25 SE 6 9 29.86 1011 10 16 0.00 0.00
5:53 am 05:53 Clear 77 25 43 6.1 30 30 WNW 3 6 29.89 1012 10 16 0.00 0.00
6:53 am 06:53 Sunny 79 26.1 45 7.2 30 30 ENE 6 9 29.91 1013 10 16 0.00 0.00
7:53 am 07:53 Sunny 83 28.3 51 10.6 33 33 ENE 8 13 29.93 1014 10 16 0.00 0.00
8:53 am 08:53 Sunny 86 30 50 10 29 29 E 8 13 29.94 1014 10 16 0.00 0.00
9:53 am 09:53 Sunny 89 31.7 49 9.4 25 25 ESE 6 9 29.96 1014 10 16 0.00 0.00
10:53 am 10:53 Sunny 92 33.3 45 7.2 20 20 VRB 6 9 29.94 1014 10 16 0.00 0.00
11:53 am 11:53 Sunny 94 34.4 43 6.1 17 17 VRB 3 6 29.93 1014 10 16 0.00 0.00
12:53 pm 12:53 Sunny 98 36.7 46 7.8 17 17 SE 8 13 29.90 1013 10 16 0.00 0.00
1:53 pm 13:53 Sunny 99 37.2 42 5.6 14 14 S 8 13 29.88 1012 10 16 0.00 0.00
2:53 pm 14:53 Sunny 103 39.4 40 4.4 11 11 SSE 12 19 29.85 1011 10 16 0.00 0.00
3:53 pm 15:53 Sunny 102 38.9 50 10 17 17 ESE 20 31 29.83 1010 10 16 0.00 0.00
4:53 pm 16:53 Sunny 104 40 39 3.9 11 11 S 15 24 29.83 1010 10 16 0.00 0.00
5:00 pm 17:00 Sunny 103 39.4 39 3.9 11 11 S 16 26 29.65 1004 10 16 0.00 0.00
5:53 pm 17:53 Sunny 102 38.9 41 5 12 12 S 15 24 29.82 1010 10 16 0.00 0.00
6:53 pm 18:53 Sunny 100 37.8 44 6.7 15 15 SSW 14 22 29.83 1010 10 16 0.00 0.00
7:53 pm 19:53 Clear 98 36.7 43 6.1 15 15 SW 12 19 29.84 1010 10 16 0.00 0.00
8:53 pm 20:53 Clear 96 35.6 41 5 15 15 SSW 10 17 29.85 1011 10 16 0.00 0.00
9:53 pm 21:53 Clear 95 35 38 3.3 14 14 S 10 17 29.86 1011 10 16 0.00 0.00
10:53 pm 22:53 Clear 92 33.3 39 3.9 16 16 WSW 6 9 29.86 1011 10 16 0.00 0.00
11:53 pm 23:53 Clear 90 32.2 41 5 18 18 SSW 3 6 29.87 1012 10 16 0.00 0.00

Powered by AerisWeather